EW7351 Weather Reports


Display with metric or nautical units.
time (UTC)temp
F
wind
direction
speed
MPH
gust
MPH
rain 1hr
in
rain 24hr
in
rain mn
in
humidity
%
barometer
mb
20260902201519 101 153 2.0 8.0 0.00 0.00 0.00 36 1011.0
20260902201012 100 15 3.0 8.0 0.00 0.00 0.00 35 1011.0
20260902200452 99 94 2.0 8.0 0.00 0.00 0.00 35 1011.2
20260902195951 100 93 1.0 7.0 0.00 0.00 0.00 34 1011.4
20260902195451 100 63 1.0 4.0 0.00 0.00 0.00 33 1011.4
20260902195433 100 55 1.0 6.0 0.00 0.00 0.00 35 1011.6
20260902194452 100 49 1.0 6.0 0.00 0.00 0.00 35 1011.6
20260902193949 98 138 2.0 6.0 0.00 0.00 0.00 35 1011.7
20260902193444 98 358 2.0 8.0 0.00 0.00 0.00 35 1011.9
20260902192935 99 343 1.0 8.0 0.00 0.00 0.00 35 1012.0
20260902192435 100 75 1.0 7.0 0.00 0.00 0.00 34 1012.0
20260902192200 100 66 1.0 6.0 0.00 0.00 0.00 36 1012.1
20260902191433 99 129 1.0 6.0 0.00 0.00 0.00 36 1012.1
20260902190935 98 142 1.0 5.0 0.00 0.00 0.00 38 1012.3
20260902190650 99 11 1.0 6.0 0.00 0.00 0.00 36 1012.3
20260902185934 99 134 2.0 7.0 0.00 0.00 0.00 37 1012.3
20260902185419 99 105 1.0 7.0 0.00 0.00 0.00 37 1012.5
20260902184857 98 81 1.0 7.0 0.00 0.00 0.00 40 1012.5
20260902184358 98 42 1.0 5.0 0.00 0.00 0.00 38 1012.7
20260902183844 96 70 2.0 10.0 0.00 0.00 0.00 40 1012.8
20260902183606 96 354 2.0 10.0 0.00 0.00 0.00 40 1012.8
20260902182841 96 82 2.0 8.0 0.00 0.00 0.00 39 1012.9
20260902182325 96 58 2.0 10.0 0.00 0.00 0.00 40 1013.0
20260902182315 97 356 2.0 10.0 0.00 0.00 0.00 36 1013.2
20260902181259 97 354 2.0 8.0 0.00 0.00 0.00 42 1013.2
20260902180951 96 70 1.0 5.0 0.00 0.00 0.00 43 1013.4
20260902180216 96 0 1.0 6.0 0.00 0.00 0.00 44 1013.5
20260902175714 95 82 2.0 8.0 0.00 0.00 0.00 43 1013.6
20260902175152 94 13 4.0 8.0 0.00 0.00 0.00 43 1013.8
20260902174632 94 354 2.0 9.0 0.00 0.00 0.00 43 1014.0
20260902174108 95 83 2.0 9.0 0.00 0.00 0.00 42 1013.9
20260902173603 95 39 1.0 6.0 0.00 0.00 0.00 46 1014.0
20260902173102 96 43 1.0 6.0 0.00 0.00 0.00 44 1014.0
20260902172536 95 125 1.0 6.0 0.00 0.00 0.00 45 1014.2
20260902172254 95 82 1.0 6.0 0.00 0.00 0.00 44 1014.3
20260902171529 95 124 2.0 6.0 0.00 0.00 0.00 45 1014.3
20260902171029 94 167 2.0 8.0 0.00 0.00 0.00 46 1014.5
20260902170501 94 97 1.0 8.0 0.00 0.00 0.00 48 1014.6
20260902165958 93 98 0.0 4.0 0.00 0.00 0.00 49 1014.6
20260902165427 92 53 1.0 7.0 0.00 0.00 0.00 51 1014.7
20260902164916 92 148 2.0 7.0 0.00 0.00 0.00 52 1014.8
20260902164413 92 342 2.0 7.0 0.00 0.00 0.00 49 1014.9
20260902163909 93 141 1.0 5.0 0.00 0.00 0.00 48 1015.0
20260902163409 93 255 1.0 7.0 0.00 0.00 0.00 50 1015.0
20260902162839 92 61 1.0 7.0 0.00 0.00 0.00 49 1014.9
20260902162600 93 124 0.0 5.0 0.00 0.00 0.00 51 1014.9
20260902161833 92 59 0.0 4.0 0.00 0.00 0.00 52 1014.9
20260902161812 92 122 0.0 5.0 0.00 0.00 0.00 52 1015.0
20260902160804 92 27 0.0 5.0 0.00 0.00 0.00 52 1015.0
20260902160302 91 254 1.0 4.0 0.00 0.00 0.00 55 1015.0
20260902155758 90 243 1.0 5.0 0.00 0.00 0.00 55 1015.0
20260902155256 91 131 1.0 7.0 0.00 0.00 0.00 54 1015.1
20260902154754 91 112 1.0 7.0 0.00 0.00 0.00 55 1015.0
20260902154229 90 70 0.0 3.0 0.00 0.00 0.00 56 1015.0
20260902153702 89 206 0.0 3.0 0.00 0.00 0.00 57 1015.1
20260902153354 89 256 0.0 4.0 0.00 0.00 0.00 59 1015.0
20260902152630 88 2 1.0 4.0 0.00 0.00 0.00 59 1015.0
20260902152105 88 133 1.0 6.0 0.00 0.00 0.00 59 1015.0
20260902151537 88 136 1.0 6.0 0.00 0.00 0.00 59 1015.0
20260902151039 88 118 1.0 6.0 0.00 0.00 0.00 61 1015.0
20260902150513 87 108 1.0 6.0 0.00 0.00 0.00 62 1015.0
20260902150009 87 148 2.0 6.0 0.00 0.00 0.00 61 1015.0
20260902145507 87 135 2.0 7.0 0.00 0.00 0.00 61 1014.9
20260902144939 87 130 2.0 7.0 0.00 0.00 0.00 61 1014.9
20260902144438 87 132 1.0 6.0 0.00 0.00 0.00 62 1014.8
20260902143913 87 120 1.0 4.0 0.00 0.00 0.00 62 1014.8
20260902143343 86 117 1.0 3.0 0.00 0.00 0.00 65 1014.8
20260902142822 86 221 0.0 4.0 0.00 0.00 0.00 64 1014.8
20260902142253 85 121 1.0 6.0 0.00 0.00 0.00 66 1014.8
20260902141751 85 124 1.0 6.0 0.00 0.00 0.00 65 1014.8
20260902141223 85 109 1.0 5.0 0.00 0.00 0.00 67 1014.8
20260902140947 84 111 1.0 5.0 0.00 0.00 0.00 67 1014.8
20260902140153 84 127 1.0 5.0 0.00 0.00 0.00 68 1014.7
20260902135651 83 155 1.0 4.0 0.00 0.00 0.00 68 1014.7
20260902135147 83 119 1.0 7.0 0.00 0.00 0.00 69 1014.7
20260902134645 82 122 2.0 7.0 0.00 0.00 0.00 69 1014.7
20260902134131 82 136 1.0 6.0 0.00 0.00 0.00 70 1014.7
20260902134035 81 131 2.0 6.0 0.00 0.00 0.00 70 1014.6
20260902133652 81 123 2.0 6.0 0.00 0.00 0.00 71 1014.6
20260902132531 81 131 1.0 6.0 0.00 0.00 0.00 70 1014.6
20260902132229 81 125 1.0 6.0 0.00 0.00 0.00 70 1014.6
20260902131442 80 128 2.0 6.0 0.00 0.00 0.00 71 1014.6
20260902130912 80 122 2.0 6.0 0.00 0.00 0.00 71 1014.6
20260902130345 80 126 2.0 7.0 0.00 0.00 0.00 72 1014.6
20260902125817 80 134 1.0 7.0 0.00 0.00 0.00 73 1014.6
20260902125315 79 131 1.0 3.0 0.00 0.00 0.00 74 1014.5
20260902124745 79 118 1.0 3.0 0.00 0.00 0.00 74 1014.4
20260902124220 79 117 1.0 4.0 0.00 0.00 0.00 75 1014.4
20260902123720 78 130 0.0 3.0 0.00 0.00 0.00 76 1014.3
20260902123159 78 131 0.0 3.0 0.00 0.00 0.00 76 1014.3
20260902122644 77 123 0.0 2.0 0.00 0.00 0.00 77 1014.3
20260902122139 76 128 0.0 1.0 0.00 0.00 0.00 78 1014.3
20260902121637 76 113 0.0 0.0 0.00 0.00 0.00 79 1014.3
20260902121133 76 202 0.0 0.0 0.00 0.00 0.00 80 1014.3
20260902120629 75 202 0.0 0.0 0.00 0.00 0.00 80 1014.3
20260902115539 76 202 0.0 0.0 0.00 0.00 0.00 79 1014.2
20260902115011 76 202 0.0 0.0 0.00 0.00 0.00 80 1014.2
20260902114509 76 202 0.0 0.0 0.00 0.00 0.00 79 1014.3
20260902114006 76 202 0.0 0.0 0.00 0.00 0.00 79 1014.3
20260902113504 76 201 0.0 0.0 0.00 0.00 0.00 79 1014.4
20260902112951 76 201 0.0 0.0 0.00 0.00 0.00 78 1014.3
20260902112454 76 201 0.0 0.0 0.00 0.00 0.00 79 1014.3
20260902111949 76 201 0.0 0.0 0.00 0.00 0.00 78 1014.3
20260902111445 76 202 0.0 0.0 0.00 0.00 0.00 78 1014.3
20260902110920 76 202 0.0 0.0 0.00 0.00 0.00 79 1014.2
20260902110421 76 201 0.0 0.0 0.00 0.00 0.00 78 1014.2
20260902105854 76 202 0.0 0.0 0.00 0.00 0.00 78 1014.2
20260902105347 76 201 0.0 0.0 0.00 0.00 0.00 76 1014.1
20260902104817 76 202 0.0 0.0 0.00 0.00 0.00 76 1014.2
20260902104313 76 202 0.0 0.0 0.00 0.00 0.00 76 1014.1
20260902103745 76 202 0.0 0.0 0.00 0.00 0.00 76 1014.1
20260902103219 77 202 0.0 0.0 0.00 0.00 0.00 75 1014.1
20260902102706 77 201 0.0 0.0 0.00 0.00 0.00 75 1014.1
20260902102210 77 202 0.0 0.0 0.00 0.00 0.00 74 1014.1
20260902101642 77 202 0.0 0.0 0.00 0.00 0.00 74 1014.2
20260902101137 78 201 0.0 0.0 0.00 0.00 0.00 74 1014.1
20260902100635 78 202 0.0 0.0 0.00 0.00 0.00 73 1014.2
20260902100133 78 202 0.0 0.0 0.00 0.00 0.00 72 1014.1
20260902095609 78 201 0.0 0.0 0.00 0.00 0.00 71 1014.2
20260902095106 79 201 0.0 0.0 0.00 0.00 0.00 71 1014.2
20260902094556 79 202 0.0 0.0 0.00 0.00 0.00 71 1014.1
20260902094320 79 201 0.0 0.0 0.00 0.00 0.00 71 1014.1
20260902093530 79 202 0.0 0.0 0.00 0.00 0.00 70 1014.0
20260902093003 79 201 0.0 0.0 0.00 0.00 0.00 69 1014.0
20260902092503 80 201 0.0 0.0 0.00 0.00 0.00 68 1014.0
20260902091941 80 201 0.0 0.0 0.00 0.00 0.00 67 1014.0
20260902091441 80 201 0.0 0.0 0.00 0.00 0.00 68 1013.9
20260902090937 80 201 0.0 0.0 0.00 0.00 0.00 67 1013.9
20260902090440 81 248 0.0 1.0 0.00 0.00 0.00 67 1013.9
20260902085914 81 248 0.0 1.0 0.00 0.00 0.00 67 1013.9
20260902085348 81 224 0.0 1.0 0.00 0.00 0.00 67 1013.8
20260902084821 81 223 0.0 0.0 0.00 0.00 0.00 67 1013.8
20260902084321 81 224 0.0 1.0 0.00 0.00 0.00 67 1013.8
20260902083824 81 224 0.0 1.0 0.00 0.00 0.00 67 1013.8
20260902083302 81 139 0.0 0.0 0.00 0.00 0.00 66 1013.8
20260902082803 82 139 0.0 0.0 0.00 0.00 0.00 66 1013.8
20260902082236 82 154 0.0 1.0 0.00 0.00 0.00 66 1013.7
20260902081735 82 154 0.0 1.0 0.00 0.00 0.00 66 1013.8
20260902081211 82 154 0.0 0.0 0.00 0.00 0.00 66 1013.8
20260902080650 82 188 0.0 1.0 0.00 0.00 0.00 65 1013.8
20260902080150 82 264 0.0 1.0 0.00 0.00 0.00 65 1013.8
20260902075648 82 153 0.0 2.0 0.00 0.00 0.00 65 1013.8
20260902075143 83 221 0.0 3.0 0.00 0.00 0.00 65 1013.9
20260902074857 83 134 0.0 3.0 0.00 0.00 0.00 65 1013.8
20260902074125 83 129 0.0 2.0 0.00 0.00 0.00 65 1013.8
20260902073621 83 129 0.0 3.0 0.00 0.00 0.00 64 1013.8
20260902073124 83 120 0.0 4.0 0.00 0.00 0.00 64 1013.8
20260902072604 83 129 0.0 3.0 0.00 0.00 0.00 64 1013.8
20260902072100 83 114 1.0 4.0 0.00 0.00 0.00 64 1013.9
20260902071601 83 162 1.0 4.0 0.00 0.00 0.00 63 1013.9
20260902071058 83 132 1.0 5.0 0.00 0.00 0.00 63 1013.9
20260902070559 83 123 1.0 5.0 0.00 0.00 0.00 63 1013.9
20260902070100 84 131 1.0 5.0 0.00 0.00 0.00 63 1013.9
20260902065537 84 158 1.0 5.0 0.00 0.00 0.00 62 1014.0
20260902065037 84 125 1.0 5.0 0.00 0.00 0.00 62 1014.0
20260902064538 84 248 2.0 4.0 0.00 0.00 0.00 62 1014.0
20260902064020 84 191 2.0 6.0 0.00 0.00 0.00 62 1014.0
20260902063715 84 110 2.0 6.0 0.00 0.00 0.00 62 1014.0
20260902062921 84 207 1.0 6.0 0.00 0.00 0.00 62 1014.0
20260902062414 84 216 2.0 6.0 0.00 0.00 0.00 61 1013.9
20260902061912 84 144 2.0 6.0 0.00 0.00 0.00 61 1013.9
20260902061347 85 103 2.0 6.0 0.00 0.00 0.00 61 1013.9
20260902060821 85 138 1.0 5.0 0.00 0.00 0.00 61 1013.9
20260902060519 85 141 1.0 4.0 0.00 0.00 0.00 61 1013.9
20260902055729 85 245 2.0 6.0 0.00 0.00 0.00 61 1013.9
20260902055229 85 113 2.0 5.0 0.00 0.00 0.00 61 1013.9
20260902054949 85 114 2.0 5.0 0.00 0.00 0.00 60 1013.9
20260902054223 85 233 2.0 5.0 0.00 0.00 0.00 60 1013.9
20260902053715 85 150 2.0 5.0 0.00 0.00 0.00 60 1013.9
20260902053212 85 124 2.0 5.0 0.00 0.00 0.00 61 1013.9
20260902052709 85 238 2.0 5.0 0.00 0.00 0.00 60 1013.9
20260902052407 86 124 2.0 5.0 0.00 0.00 0.00 60 1013.8
20260902051617 86 139 2.0 7.0 0.00 0.00 0.00 60 1013.8
20260902051313 86 105 2.0 7.0 0.00 0.00 0.00 59 1013.8
20260902050525 86 203 3.0 8.0 0.00 0.00 0.00 58 1013.8
20260902045959 86 129 3.0 8.0 0.00 0.00 0.00 58 1013.8
20260902045431 86 117 3.0 8.0 0.00 0.00 0.00 57 1013.9
20260902044927 87 141 3.0 8.0 0.00 0.00 0.00 57 1013.8
20260902044425 87 156 3.0 8.0 0.00 0.00 0.00 57 1013.8
20260902043920 87 117 3.0 8.0 0.00 0.00 0.00 56 1013.7
20260902043422 87 234 3.0 7.0 0.00 0.00 0.00 56 1013.7
20260902042916 87 113 3.0 7.0 0.00 0.00 0.00 56 1013.7
20260902042413 87 208 3.0 7.0 0.00 0.00 0.00 55 1013.7
20260902041847 88 219 4.0 8.0 0.00 0.00 0.00 55 1013.6
20260902041546 88 137 5.0 10.0 0.00 0.00 0.00 54 1013.6
20260902040756 88 220 4.0 12.0 0.00 0.00 0.00 54 1013.6
20260902040719 88 156 5.0 10.0 0.00 0.00 0.00 54 1013.6
20260902035952 88 219 5.0 12.0 0.00 0.00 0.00 54 1013.5
20260902035222 89 146 5.0 11.0 0.00 0.00 0.00 54 1013.4
20260902034715 89 129 5.0 12.0 0.00 0.00 0.00 53 1013.4
20260902034146 89 139 4.0 12.0 0.00 0.00 0.00 51 1013.4
20260902033644 89 131 2.0 9.0 0.00 0.00 0.00 50 1013.3
20260902033116 88 143 0.0 4.0 0.00 0.00 0.00 52 1013.3
20260902032615 89 123 0.0 1.0 0.00 0.00 0.00 51 1013.2
20260902032111 89 123 0.0 1.0 0.00 0.00 0.00 50 1013.0
20260902031608 89 123 0.0 1.0 0.00 0.00 0.00 50 1013.0
20260902031320 90 123 0.0 1.0 0.00 0.00 0.00 49 1012.9
20260902030558 90 123 0.0 3.0 0.00 0.00 0.00 48 1012.9
20260902030253 90 123 0.0 3.0 0.00 0.00 0.00 48 1012.9
20260902025750 91 123 1.0 4.0 0.00 0.00 0.00 47 1012.7
20260902025000 91 113 1.0 4.0 0.00 0.00 0.00 47 1012.7
20260902024456 91 125 1.0 5.0 0.00 0.00 0.00 47 1012.7
20260902023954 91 153 1.0 5.0 0.00 0.00 0.00 46 1012.6
20260902023453 91 176 1.0 5.0 0.00 0.00 0.00 46 1012.5
20260902022939 91 110 1.0 5.0 0.00 0.00 0.00 45 1012.5
20260902022442 92 143 1.0 4.0 0.00 0.00 0.00 45 1012.4
20260902021921 92 136 2.0 5.0 0.00 0.00 0.00 45 1012.3
20260902021416 92 109 2.0 5.0 0.00 0.00 0.00 44 1012.2
20260902020915 92 139 1.0 4.0 0.00 0.00 0.00 45 1012.1
20260902020414 91 153 1.0 4.0 0.00 0.00 0.00 45 1012.1
20260902020141 91 118 0.0 3.0 0.00 0.00 0.00 46 1012.0
20260902015350 91 124 0.0 3.0 0.00 0.00 0.00 47 1011.9
20260902014846 91 128 0.0 2.0 0.00 0.00 0.00 47 1011.7
20260902014345 91 131 0.0 1.0 0.00 0.00 0.00 47 1011.7
20260902013834 91 131 0.0 1.0 0.00 0.00 0.00 46 1011.6
20260902013333 92 131 0.0 3.0 0.00 0.00 0.00 46 1011.6
20260902012805 92 131 0.0 3.0 0.00 0.00 0.00 46 1011.5
20260902012522 92 127 1.0 3.0 0.00 0.00 0.00 45 1011.5
20260902012030 92 129 1.0 3.0 0.00 0.00 0.00 45 1011.5
20260902011237 92 125 1.0 4.0 0.00 0.00 0.00 44 1011.5
20260902010739 93 124 2.0 6.0 0.00 0.00 0.00 43 1011.4
20260902010213 93 122 2.0 6.0 0.00 0.00 0.00 43 1011.4
20260902005711 94 129 1.0 6.0 0.00 0.00 0.00 41 1011.3
20260902005146 94 138 0.0 1.0 0.00 0.00 0.00 39 1011.3
20260902004647 95 129 0.0 2.0 0.00 0.00 0.00 39 1011.3
20260902004126 95 115 0.0 2.0 0.00 0.00 0.00 38 1011.3
20260902003627 96 125 0.0 2.0 0.00 0.00 0.00 37 1011.3
20260902003123 96 111 0.0 2.0 0.00 0.00 0.00 37 1011.4
20260902002603 96 115 0.0 1.0 0.00 0.00 0.00 37 1011.4
20260902002036 97 115 0.0 2.0 0.00 0.00 0.00 37 1011.3
20260902001519 96 115 0.0 5.0 0.00 0.00 0.00 36 1011.4
20260902001021 97 222 0.0 5.0 0.00 0.00 0.00 36 1011.5
20260902000501 97 139 1.0 3.0 0.00 0.00 0.00 36 1011.5
20260901235940 97 134 1.0 6.0 0.00 0.00 0.00 35 1011.5
20260901235412 97 128 2.0 6.0 0.00 0.00 0.00 35 1011.5
20260901234915 97 136 1.0 5.0 0.00 0.00 0.00 36 1011.6
20260901234358 97 103 1.0 7.0 0.00 0.00 0.00 36 1011.6
20260901233900 97 105 2.0 7.0 0.00 0.00 0.00 35 1011.6
20260901233332 97 122 3.0 9.0 0.00 0.00 0.00 35 1011.7
20260901232832 97 135 3.0 9.0 0.00 0.00 0.00 36 1011.9
20260901232306 97 91 2.0 8.0 0.00 0.00 0.00 35 1011.9
20260901231802 97 97 2.0 8.0 0.00 0.00 0.00 35 1011.9
20260901231301 97 94 1.0 6.0 0.00 0.00 0.00 36 1011.9
20260901230801 97 129 1.0 4.0 0.00 0.00 0.00 37 1011.9
20260901230747 97 124 1.0 3.0 0.00 0.00 0.00 36 1011.9
20260901225741 97 153 1.0 5.0 0.00 0.00 0.00 36 1011.9
20260901225214 97 123 2.0 6.0 0.00 0.00 0.00 36 1012.0
20260901224656 97 262 1.0 6.0 0.00 0.00 0.00 35 1011.9
20260901224356 98 162 1.0 4.0 0.00 0.00 0.00 35 1011.9
20260901223607 97 158 1.0 5.0 0.00 0.00 0.00 36 1012.0
20260901223106 97 146 1.0 4.0 0.00 0.00 0.00 37 1012.0
20260901222758 97 130 1.0 5.0 0.00 0.00 0.00 37 1012.0
20260901222015 97 129 1.0 7.0 0.00 0.00 0.00 37 1012.0
20260901221451 97 129 1.0 7.0 0.00 0.00 0.00 37 1012.0
20260901220948 97 225 2.0 6.0 0.00 0.00 0.00 36 1012.0
20260901220446 97 160 2.0 7.0 0.00 0.00 0.00 36 1012.1
20260901215944 97 139 1.0 6.0 0.00 0.00 0.00 36 1012.1
20260901215438 97 145 2.0 6.0 0.00 0.00 0.00 36 1012.1
20260901214932 97 160 3.0 7.0 0.00 0.00 0.00 35 1012.2
20260901214412 98 62 3.0 7.0 0.00 0.00 0.00 34 1012.3
20260901213845 98 226 4.0 10.0 0.00 0.00 0.00 34 1012.2
20260901213320 99 209 3.0 10.0 0.00 0.00 0.00 33 1012.3
20260901213244 99 113 2.0 6.0 0.00 0.00 0.00 33 1012.3
20260901212510 100 137 3.0 9.0 0.00 0.00 0.00 32 1012.3
20260901211750 101 143 3.0 11.0 0.00 0.00 0.00 31 1012.4
20260901211250 101 332 1.0 11.0 0.00 0.00 0.00 32 1012.4
20260901210730 101 139 2.0 9.0 0.00 0.00 0.00 32 1012.5
20260901210203 100 130 3.0 9.0 0.00 0.00 0.00 34 1012.5
20260901205924 100 122 4.0 9.0 0.00 0.00 0.00 33 1012.5
20260901205156 100 213 2.0 9.0 0.00 0.00 0.00 33 1012.5
20260901204632 101 134 1.0 5.0 0.00 0.00 0.00 33 1012.6
20260901204105 100 123 0.0 3.0 0.00 0.00 0.00 34 1012.7
20260901203823 100 113 1.0 5.0 0.00 0.00 0.00 33 1012.7
20260901203058 101 350 1.0 5.0 0.00 0.00 0.00 32 1012.8
20260901202529 100 124 1.0 5.0 0.00 0.00 0.00 34 1012.8